Regional Weather Roundup
Issued by NWS Charleston, WV

Home | Current Version | Previous Version | Graphics & Text | Print | Product List | Glossary On
Versions: 1 2 3 4 5 6 7 8 9 10 11 12 13 14 15 16 17 18 19 20 21 22 23 24 25 26 27 28 29 30 31 32 33 34 35 36 37 38 39 40 41 42 43 44 45 46 47 48 49 50
000
ASUS41 KRLX 071110
RWRRLX
West Virginia Regional Weather Roundup
National Weather Service Charleston WV
700 AM EDT TUE JUL 07 2015

Note: "fair" indicates few or no clouds below 12,000 feet with no
significant weather and/or obstructions to visibility.

WVZ003-071200-
Northern Panhandle of West Virginia

CITY           SKY/WX    TMP DP  RH WIND       PRES   REMARKS
WHEELING       MOCLDY    68  66  93 SW10      30.05R FOG
$$

WVZ009-071200-
Northwest West Virginia

CITY           SKY/WX    TMP DP  RH WIND       PRES   REMARKS
PARKERSBURG    PTCLDY    68  66  93 S7        30.08R FOG
$$

WVZ006-071200-
Western West Virginia

CITY           SKY/WX    TMP DP  RH WIND       PRES   REMARKS
HUNTINGTON     MOCLDY    68  67  96 S7        30.06R FOG
$$

WVZ015-071200-
West Central West Virginia

CITY           SKY/WX    TMP DP  RH WIND       PRES   REMARKS
CHARLESTON     MOCLDY    66  64  93 CALM      30.09R
$$

WVZ022-031-071200-
North Central West Virginia

CITY           SKY/WX    TMP DP  RH WIND       PRES   REMARKS
CLARKSBURG     PTCLDY    67  65  93 S3        30.09R FOG
MORGANTOWN     PTCLDY    70  64  81 S3        30.09R HAZE
$$

WVZ025-035-042-045-071200-
Southern West Virginia

CITY           SKY/WX    TMP DP  RH WIND       PRES   REMARKS
BECKLEY        CLEAR     64  62  93 S6        30.19R FOG
LOGAN          FOG       66  66 100 CALM      30.10R VSB 1/4
BLUEFIELD      CLEAR     65  60  84 CALM      30.21R HAZE
LEWISBURG      FOG       64  62  94 CALM      30.19R VSB<1/4
$$

WVZ047-071200-
Northern Mountains of West Virginia

CITY           SKY/WX    TMP DP  RH WIND       PRES   REMARKS
ELKINS         FOG       62  60  93 CALM      30.15R VSB 1/2
$$

WVZ052-071200-
Eastern Panhandle of West Virginia

CITY           SKY/WX    TMP DP  RH WIND       PRES   REMARKS
MARTINSBURG    CLOUDY    70  68  93 S3        30.07R
PETERSBURG     FOG       67  65  94 CALM      30.10R VSB 3/4
$$



USA.gov is the U.S. government's official web portal to all federal, state and local government web resources and services.